Regional Weather Roundup
Issued by NWS

Home | Current Version | Previous Version | Graphics & Text | Print | Product List | Glossary On
Versions: 1 2 3 4 5 6 7 8 9 10 11 12 13 14 15 16 17 18 19 20 21 22 23 24 25 26 27 28 29 30 31 32 33 34 35 36 37 38 39 40 41 42 43 44 45 46 47 48 49 50
633
ASUS43 KOAX 280410
RWRNE

WEATHER ROUNDUP FOR NEBRASKA
NATIONAL WEATHER SERVICE OMAHA NE
1000 PM CST MON FEB 27 2017

NOTES: SATELLITE DATA IS BEING USED TO AUGMENT CLOUD COVER ABOVE
       12000 FEET.
       "FAIR" INDICATES FEW OR NO CLOUDS BELOW 12,000 FEET WITH NO
       SIGNIFICANT WEATHER AND/OR OBSTRUCTIONS TO VISIBILITY.

  * THESE STATIONS DO NOT REPORT WEATHER SUCH AS RAIN...SNOW OR FOG.

NEZ001>004-019>022-054>056-280500-
NEBRASKA PANHANDLE

CITY           SKY/WX    TMP DP  RH WIND       PRES   REMARKS
SCOTTSBLUFF    CLOUDY    26  23  88 NW5       29.69R WCI  20
ALLIANCE       CLOUDY    28  23  81 CALM      29.65R
CHADRON        CLOUDY    31  29  92 S5        29.67S WCI  26
KIMBALL        CLOUDY    27  27 100 NW9       29.67R WCI  18
SIDNEY         CLOUDY    30  24  78 NW14      29.64R WCI  19
$$

NEZ057>060-069>072-079>082-280500-
SOUTHWEST NEBRASKA

CITY           SKY/WX    TMP DP  RH WIND       PRES   REMARKS
NORTH PLATTE   CLOUDY    31  23  72 SE9       29.55F WCI  23
IMPERIAL       CLOUDY    43  17  35 S12       29.52F
LEXINGTON      CLOUDY    41  25  53 SE9       29.59F
MCCOOK         CLOUDY    47  17  30 S15       29.56S
OGALLALA       CLOUDY    38  26  62 NW8G21    29.57R WCI  32
$$

NEZ005>010-023>029-035>040-094-280500-
NORTH CENTRAL NEBRASKA

CITY           SKY/WX    TMP DP  RH WIND       PRES   REMARKS
VALENTINE      MOCLDY    36  28  73 N9        29.66R WCI  29
AINSWORTH      PTCLDY    32  31  93 CALM      29.64R
BROKEN BOW     CLOUDY    33  28  81 CALM      29.60R
O`NEILL        CLEAR     36  32  87 SE6       29.64S WCI  31
ORD            CLOUDY    39  34  82 CALM      29.62F
THEDFORD       CLOUDY    41  30  66 NW7       29.63R
$$

NEZ041-046>049-061>064-073>077-083>087-280500-
SOUTH CENTRAL NEBRASKA

CITY           SKY/WX    TMP DP  RH WIND       PRES   REMARKS
GRAND ISLAND   CLOUDY    42  39  89 SE8       29.66S
AURORA         CLOUDY    38  35  90 E7        29.66F WCI  32
HASTINGS       CLOUDY    47  38  71 SE13      29.64F
HEBRON         CLOUDY    44  38  79 SE3       29.67F
HOLDREGE       CLOUDY    39  33  78 SE9       29.60S WCI  33
KEARNEY *      CLOUDY    41  34  75 E6        29.62F
YORK           CLOUDY    45  37  76 SE8       29.68S
$$

NEZ011>018-030>034-042>045-280500-
NORTHEAST NEBRASKA

CITY           SKY/WX    TMP DP  RH WIND       PRES   REMARKS
NORFOLK        CLEAR     38  31  76 SE8       29.67F WCI  32
ALBION         CLEAR     39  34  83 SE9       29.65F WCI  33
BLAIR          CLOUDY    45  32  61 SE6       29.72S
FREMONT        CLOUDY    40  31  70 CALM      29.72S
TEKAMAH        CLEAR     38  29  70 S5        29.74S WCI  34
WAYNE          CLEAR     36  31  82 CALM      29.70F
$$

NEZ050>053-065>068-078-088>093-280500-
SOUTHEAST NEBRASKA

CITY           SKY/WX    TMP DP  RH WIND       PRES   REMARKS
LINCOLN        CLOUDY    37  32  82 CALM      29.72F
OMAHA EPPLEY   CLOUDY    44  30  57 SE3       29.73S
BEATRICE       CLOUDY    47  40  79 E6        29.70F
FALLS CITY     CLOUDY    47  37  68 SE6       29.73F
NEBRASKA CITY  CLOUDY    44  31  61 S7        29.73S
PLATTSMOUTH    CLOUDY    49  31  51 SE10      29.72F
$$

NEZ044-045-051>053-067-280500-
OMAHA AREA

CITY           SKY/WX    TMP DP  RH WIND       PRES   REMARKS
OMAHA EPPLEY   CLOUDY    44  30  57 SE3       29.73S
BLAIR          CLOUDY    45  32  61 SE6       29.72S
FREMONT        CLOUDY    40  31  70 CALM      29.72S
MILLARD        CLOUDY    43  33  68 CALM      29.73S
OFFUTT AFB     CLOUDY    43  32  64 S3        29.72F
PLATTSMOUTH    CLOUDY    49  31  51 SE10      29.72F
WAHOO          FAIR      39  31  74 CALM      29.72R
$$




USA.gov is the U.S. government's official web portal to all federal, state and local government web resources and services.